Weather Service Report


341 
ASUS41 KBOX 041110
RWRBOX

REGIONAL WEATHER ROUNDUP
NATIONAL WEATHER SERVICE TAUNTON MA
700 AM EDT WED MAY 04 2016

NOTE:  "FAIR" INDICATES FEW OR NO CLOUDS BELOW 12,000 FEET WITH NO 
SIGNIFICANT WEATHER AND/OR OBSTRUCTIONS TO VISIBILITY.  THE FOLLOWING 
OBSERVATION LOCATIONS DO NOT REPORT PRESENT WEATHER...PROVINCETOWN...
SMITHFIELD...BLOCK ISLAND...KEENE...AND OXFORD.

MAZALL-041200-
EASTERN MASSACHUSETTS
  
CITY           SKY/WX    TMP DP  RH WIND       PRES   REMARKS
BOSTON         CLOUDY    46  42  86 E8        29.89R                  
BEVERLY        CLOUDY    45  42  89 NE5       29.88R                  
LAWRENCE       CLOUDY    46  42  86 NE5       29.90R                  
BEDFORD        CLOUDY    45  43  93 NE5       29.87R                  
BLUE HILL        N/A     43  42  97 E9        29.86R                  
NORWOOD        CLOUDY    47  43  86 CALM      29.88R                  
MARSHFIELD     MOSUNNY   46  45  93 E10       29.89R                  
PLYMOUTH       CLOUDY    46  43  89 NE6       29.87R                  
TAUNTON        CLOUDY    47  42  83 N3        29.87R                  
NEW BEDFORD    CLOUDY    46  43  89 NE7       29.85R                  
$$

MAZALL-041200-
CAPE COD AND THE ISLANDS
  
CITY           SKY/WX    TMP DP  RH WIND       PRES   REMARKS
FALMOUTH       CLOUDY    46  43  87 NE10      29.85R                  
HYANNIS        CLOUDY    46  42  86 E7        29.85R                  
CHATHAM        CLOUDY    45  43  93 NE10      29.85F                  
PROVINCETOWN   CLOUDY    45  43  93 E9        29.87S                  
NANTUCKET      CLOUDY    47  43  86 NE13      29.83R                  
MARTHAS VNYRD  CLOUDY    47  43  86 E14       29.84R                  
$$
 
MAZALL-041200-
CENTRAL AND WESTERN MASSACHUSETTS
  
CITY           SKY/WX    TMP DP  RH WIND       PRES   REMARKS
WORCESTER      CLOUDY    42  40  92 E7        29.85R                  
FITCHBURG      CLOUDY    46  42  86 E3        29.88R                  
ORANGE         CLOUDY    46  41  82 CALM      29.87R                  
SPRINGFIELD    CLOUDY    47  44  90 N6        29.84R                  
WESTFIELD      CLOUDY    47  44  90 N3        29.85R                  
NORTH ADAMS    CLOUDY    48  42  80 E7        29.83R                  
PITTSFIELD     CLOUDY    45  43  93 E7        29.81R                  
$$
 
RIZALL-041200-
RHODE ISLAND
  
CITY           SKY/WX    TMP DP  RH WIND       PRES   REMARKS
PROVIDENCE     CLOUDY    46  42  86 NE8       29.87R                  
NEWPORT        CLOUDY    46  43  89 NE5       29.85R                  
BLOCK ISLAND   CLOUDY    47  44  90 NE10      29.82F                  
SMITHFIELD       N/A     45  39  81 E7        29.86R                  
WESTERLY       CLOUDY    48  42  80 NE8       29.84F                  
$$
 
CTZALL-041200-
CONNECTICUT
  
CITY           SKY/WX    TMP DP  RH WIND       PRES   REMARKS
BRADLEY INTL   CLOUDY    48  44  86 N7        29.84R                  
HARTFORD       CLOUDY    51  43  74 N5        29.85R                  
BRIDGEPORT     CLOUDY    50  42  74 E8        29.83R                  
DANBURY        CLOUDY    48  43  82 E6        29.83S                  
GROTON         CLOUDY    48  47  96 NE10      29.83S                  
NEW HAVEN      CLOUDY    49  43  80 NE7       29.83R                  
CHESTER        CLOUDY    46  43  87 NE3       29.83R                  
MERIDEN        CLOUDY    50  43  77 NE3       29.84R                  
WILLIMANTIC    CLOUDY    49  41  74 NE9       29.85R                  
OXFORD         CLOUDY    46  41  81 CALM      29.84R                  
$$

MEZ002-015-021-024-NHZ003-005-008-011-012-014-VTZ005-008-041200-
NORTHERN NEW ENGLAND
  
CITY           SKY/WX    TMP DP  RH WIND       PRES   REMARKS
PORTLAND ME    CLOUDY    44  42  93 CALM      29.91R                  
BANGOR ME      CLOUDY    48  41  76 NE7       29.91R                  
CONCORD NH     CLOUDY    46  40  79 CALM      29.89R                  
MANCHESTER NH  PTSUNNY   45  40  82 E5        29.87S                  
NASHUA NH      CLOUDY    46  42  86 CALM      29.89R                  
PORTSMOUTH NH  CLOUDY    44  42  93 NE3       29.88S                  
JAFFREY NH     CLOUDY    44  40  85 CALM      29.86R                  
KEENE NH       CLOUDY    46  45  93 CALM      29.87R                  
BURLINGTON VT  PTSUNNY   44  39  82 CALM      29.81S                  
MT. WASHINGTON FOG       27  27 100 SE8         N/A  VSB 0   WCI  18  
$$

NYZ052-076-041200-
EASTERN NEW YORK
  
CITY           SKY/WX    TMP DP  RH WIND       PRES   REMARKS
ALBANY         CLOUDY    49  47  93 E3        29.81R                  
NEW YORK CITY  LGT RAIN  50  47  89 E16       29.81R FOG              
$$
 
ANZALL-041200-
MARINE OBSERVATIONS
  
STATION/POSITION TIME  TEMP    WIND        PRES    VSBY  WAVE
                       AIR SEA DIR/SP/G                  HT/PER
                 (UTC) (F)     (DEG/KT/KT) (MB)    (MI)  (FT/S)
BOSTON BUOY      1050   46 47   60/ 10/ 12 1010.8R         2/ 8
BUZZARDS BAY     1000   46      70/ 15/ 17 1010.5F
NANTUCKET SOUND  1050   47 49   60/ 12/ 16 1010.7R         2/ 4
MASS BAY-STELLWA 1004   45 46                N/A    1 7/8  2/ 8
ISLE OF SHOALS   1000   45      70/  7/  7 1011.9R
S OF BLOCK IS    NOT AVBL
$$

......................KEY.........................
  SKY/WX - SKY CONDITION/PRESENT WEATHER
  TMP    - TEMPERATURE IN FAHRENHEIT
  DWPT   - DEWPOINT IN FAHRENHEIT
  RH     - RELATIVE HUMIDITY IN PERCENT
  WIND   - DIRECTION AND SPEED IN MPH
  PRES   - MEAN SEA LEVEL PRESSURE IN INCHES OF HG
  WCI    - WIND CHILL INDEX
  VSB    - VISIBILITY IN MILES
  HX     - HEAT INDEX
  TC     - TEMPERATURE IN CELSIUS
  VRB    - VARIABLE WIND DIRECTION
  N/A    - NOT AVAILABLE
  

Return to Home page


Western Regional Climate Center, wrcc@dri.edu